RH
33 31 30 30 28 28 27 25 25 25 24 24 24 26 27 26 25 25 25 27 28 29 29 29 27 26 26 27 28 28 28 29 30 31 32 33 34 34 34 35 37 37 38 40 41 40 39 37 36 35 34 31 30 30 30 30 30 31 32 34 35 36 37 36 36 34 33 33 33 33 33 32 33 34 33 30 28 25 24 25 30 33 36 40 44
39 34 32 32 31 30 29 28 26 25 25 24 24 24 25 26 25 26 26 26 26 27 27 28 28 27 26 26 27 27 27 27 28 28 29 29 31 33 34 35 35 35 35 36 38 39 40 38 36 36 34 32 30 30 29 30 31 32 32 33 34 35 35 36 36 35 33 32 31 31 31 29 29 29 29 29 28 27 26 25 28 32 36 40 44
46 42 36 33 33 32 32 30 29 27 26 25 24 24 24 24 25 25 25 26 25 25 26 26 27 27 26 26 26 26 26 26 26 26 27 28 29 30 32 33 34 34 34 34 35 36 38 38 37 36 35 33 31 30 30 30 31 31 31 32 32 33 33 34 35 35 33 31 30 30 29 28 27 26 26 26 25 26 27 27 28 31 34 38 42
52 47 42 37 35 34 33 32 31 29 28 26 25 25 25 24 24 24 24 24 24 24 24 25 25 26 25 25 25 25 26 26 26 25 25 27 28 30 30 31 32 33 33 33 33 34 35 37 37 36 35 34 33 32 31 31 31 31 31 30 31 31 32 32 33 34 33 31 30 30 28 27 26 25 25 25 24 24 24 24 25 28 32 36 40
58 51 47 43 40 37 35 34 33 31 30 29 27 27 26 25 24 24 23 23 23 23 23 23 24 24 24 24 24 24 25 25 26 26 25 25 26 28 29 30 30 31 32 33 33 32 33 34 36 36 35 34 33 32 32 32 32 31 31 31 30 30 31 31 32 32 31 31 30 29 28 27 26 25 25 25 25 23 22 21 21 24 28 32 36
64 59 54 49 45 42 40 38 35 33 32 31 30 29 28 27 26 25 24 22 22 21 21 22 22 22 23 23 23 23 24 24 25 25 25 25 25 26 27 28 29 29 31 32 32 32 32 33 34 34 34 34 34 33 33 33 32 32 31 31 30 30 30 30 30 30 29 29 29 28 27 26 26 25 26 26 25 24 23 22 21 21 22 25 30
63 62 58 54 50 47 45 42 39 37 35 33 32 32 30 29 28 27 25 24 22 21 20 20 20 21 21 22 22 22 22 23 23 23 23 24 25 26 25 26 27 28 29 30 31 32 32 32 33 33 33 33 33 34 34 33 33 33 32 32 31 30 30 30 29 28 28 27 27 27 26 26 25 24 25 26 26 25 24 24 23 22 21 22 25
61 58 56 54 53 51 48 46 44 42 40 37 35 33 32 31 29 29 28 26 25 23 21 20 19 19 19 20 21 21 21 21 21 21 21 22 23 24 24 24 24 25 26 28 29 31 31 32 32 32 32 32 32 33 34 34 34 33 33 32 32 31 31 30 29 28 28 27 27 27 26 25 25 24 24 25 26 25 25 25 26 25 23 22 24
65 60 56 52 52 53 52 49 47 46 45 42 38 35 34 33 32 31 30 29 28 26 25 23 21 20 19 18 18 19 19 20 20 20 19 20 20 22 23 23 22 23 23 25 27 29 30 31 31 31 31 32 32 32 33 33 33 33 33 33 32 32 31 31 30 29 28 28 27 26 25 25 25 24 24 24 25 26 26 25 26 27 25 24 25
70 66 61 56 52 52 53 52 49 47 46 44 41 38 36 35 34 33 31 31 30 30 28 27 25 23 21 19 18 17 17 17 17 18 18 18 19 20 21 22 22 22 22 22 24 26 28 30 30 30 31 31 32 32 32 32 32 32 32 32 32 31 31 31 30 30 29 29 28 27 26 25 25 24 24 24 24 26 27 27 27 28 27 27 27
75 71 67 63 58 53 52 52 51 49 47 46 43 40 38 36 35 35 34 33 32 31 31 30 28 26 24 21 19 18 16 16 16 16 16 16 17 17 19 21 22 22 21 21 22 24 25 28 29 29 29 29 30 31 31 31 31 30 30 30 31 30 30 29 29 28 28 28 28 27 26 25 25 24 24 24 25 27 29 29 29 30 30 29 30
79 77 73 68 63 57 53 52 52 51 50 48 46 43 41 39 37 36 35 34 34 33 32 31 30 30 28 25 23 19 16 15 16 16 15 15 15 15 16 18 20 21 21 20 21 22 24 25 27 27 27 27 27 27 28 28 28 28 28 29 29 30 29 29 28 27 26 25 25 24 24 23 23 24 24 25 27 29 30 30 30 32 32 31 31
82 80 77 72 67 62 56 52 51 51 51 50 49 48 46 44 41 38 37 36 36 35 34 33 32 32 31 29 27 23 20 17 16 15 15 15 15 15 15 16 17 20 21 21 21 21 23 23 24 25 25 25 25 24 25 25 25 25 26 26 27 27 28 27 26 26 24 23 22 21 19 19 19 20 20 23 27 29 30 31 31 31 32 32 31
84 81 79 77 73 67 62 56 52 51 50 50 50 49 49 47 45 44 42 39 37 36 35 35 34 34 33 31 30 28 25 22 19 18 17 16 16 16 16 16 16 17 19 20 21 21 22 22 23 23 24 24 24 23 23 23 23 23 23 23 23 23 24 25 25 24 23 22 20 18 16 16 16 16 16 18 22 25 27 29 30 31 32 32 32
83 84 83 82 79 73 69 64 59 55 53 51 50 49 47 46 46 46 46 45 42 39 37 36 35 35 34 33 32 31 29 27 25 23 21 20 20 20 20 20 19 17 17 18 20 21 21 21 22 22 23 23 22 22 22 22 21 21 21 21 21 21 21 22 23 23 22 22 21 20 19 18 17 17 17 18 20 23 25 27 28 28 30 31 31
80 84 86 86 85 81 77 74 69 64 61 57 53 50 47 47 47 47 47 47 47 44 41 39 37 35 35 34 33 32 31 30 29 27 25 25 26 27 25 23 22 20 18 17 18 20 21 21 21 21 21 21 21 21 21 21 21 21 20 20 19 19 19 20 21 22 22 21 21 21 21 21 20 20 20 21 22 23 24 25 26 25 27 28 29
76 79 81 84 86 84 83 81 77 72 68 63 57 53 50 49 48 48 48 47 47 46 44 42 40 38 36 35 34 33 31 31 30 30 29 29 30 30 28 27 26 23 19 18 17 18 19 20 20 20 20 20 20 20 20 21 21 20 20 19 19 18 17 18 19 20 21 21 21 20 21 21 22 22 22 23 25 26 26 26 25 25 25 26 25
72 75 77 80 82 83 83 83 82 78 74 69 64 59 57 55 53 51 50 48 46 45 45 44 43 41 39 37 35 33 31 30 30 30 30 31 32 32 30 29 28 26 22 19 17 18 18 19 19 20 19 19 19 20 21 21 21 21 20 20 19 17 16 17 18 18 19 20 20 20 20 20 22 22 22 23 24 26 28 28 27 28 27 26 25
70 73 75 76 77 81 83 83 83 83 79 76 72 69 67 64 60 55 53 52 50 47 46 44 42 41 39 37 35 33 31 30 30 29 29 29 31 31 31 31 30 27 24 21 19 18 18 18 19 19 19 19 19 20 21 22 21 21 21 22 21 19 17 17 18 18 19 19 19 19 19 20 20 20 20 20 22 24 27 28 30 30 29 28 27
66 70 73 74 73 75 79 80 81 83 83 81 78 77 76 73 68 61 58 57 56 52 50 47 43 40 38 37 35 33 30 29 29 29 29 29 29 30 30 31 30 26 23 22 21 19 18 18 18 18 18 19 20 20 21 22 22 22 22 23 21 20 19 19 19 19 20 20 20 19 18 18 19 19 19 18 19 21 24 27 29 30 30 29 29
59 62 67 71 71 70 71 73 73 77 83 86 84 83 82 79 74 68 64 63 61 58 56 53 47 41 38 37 36 33 31 29 28 28 29 29 29 29 29 30 29 27 25 23 21 20 19 18 17 18 18 19 20 21 21 21 22 22 22 22 21 21 21 21 21 20 20 20 20 19 18 17 16 17 18 18 18 19 21 24 26 29 30 29 28
55 54 54 59 66 69 70 70 71 74 81 85 85 84 83 81 78 74 71 68 65 62 60 57 51 45 42 40 38 35 32 30 28 27 27 28 28 28 28 28 29 29 28 26 22 20 18 17 16 17 18 19 20 21 22 22 23 23 21 19 19 21 23 23 22 21 20 20 20 20 18 17 15 15 16 16 17 17 19 22 24 27 29 28 27
54 54 50 48 55 64 67 69 72 74 75 79 82 81 81 81 82 81 77 72 66 62 61 60 55 51 48 45 42 39 35 30 27 26 26 27 27 27 27 27 29 31 31 28 24 20 18 17 17 17 18 18 19 21 23 24 25 23 20 19 20 22 23 23 22 21 20 20 21 20 19 17 16 15 14 14 15 17 19 21 23 26 26 25 25
55 55 52 48 50 56 60 64 69 70 69 70 74 76 78 82 85 84 82 77 69 64 63 63 60 57 53 49 45 43 38 31 26 25 26 26 26 26 26 27 28 30 32 30 26 22 19 17 17 18 19 19 19 21 23 25 26 24 22 21 22 23 24 24 23 22 21 21 21 20 18 16 15 14 14 15 17 18 20 22 23 24 24 24 23
58 56 55 53 51 52 54 56 61 67 68 65 64 66 73 84 88 85 81 78 74 69 68 69 68 64 59 52 47 43 39 32 27 26 27 27 27 27 27 28 29 30 32 32 29 25 22 21 20 20 21 20 21 22 23 24 25 25 24 24 24 25 25 26 25 25 24 23 22 21 19 18 16 16 17 18 19 20 21 22 22 23 24 24 24
61 58 57 56 55 53 52 50 52 58 63 64 62 63 69 80 88 87 83 80 79 76 75 75 74 68 61 55 49 45 40 33 29 28 28 27 28 28 28 29 30 31 33 33 31 29 27 26 24 23 22 22 22 22 22 23 24 25 25 26 26 26 26 26 26 26 25 25 23 22 22 21 21 20 20 20 20 20 21 23 24 24 24 24 24
67 63 60 59 57 55 55 53 50 50 53 56 60 64 69 77 86 90 87 84 84 82 80 79 76 69 61 56 53 51 45 38 33 32 32 31 30 30 31 31 32 34 34 34 34 34 33 32 30 28 26 25 25 24 23 23 23 23 23 24 24 24 25 25 26 26 26 26 26 24 24 25 25 24 22 21 20 20 22 24 25 26 26 26 26
70 69 66 62 58 56 56 55 52 51 50 49 50 55 62 71 80 86 86 85 86 85 83 81 77 70 64 60 58 56 50 43 39 38 38 39 39 39 40 40 40 40 39 38 39 38 36 35 34 33 31 30 29 28 27 25 24 23 23 24 24 25 25 26 27 27 26 27 27 25 24 24 24 24 24 23 22 21 23 25 26 27 28 27 27
66 70 70 67 63 59 57 55 53 53 53 49 45 46 51 59 68 75 78 80 83 85 84 81 76 72 68 65 64 60 51 44 44 44 45 46 48 49 51 51 50 49 48 48 47 44 41 39 38 38 37 36 36 35 34 33 33 33 32 31 30 29 28 28 27 27 26 26 27 25 24 23 23 24 24 24 23 23 24 26 27 28 29 28 28
58 64 69 70 68 64 61 57 54 52 53 52 46 44 47 51 56 62 66 70 75 79 81 78 75 73 70 65 64 62 54 49 51 52 51 51 53 55 57 57 56 56 55 56 55 51 46 44 43 43 42 41 41 41 41 42 42 42 41 40 38 36 33 30 27 26 25 25 25 24 24 24 24 23 24 23 23 23 24 25 27 29 30 29 30
50 55 62 68 70 69 65 61 57 53 54 55 51 46 45 47 49 53 59 65 71 75 76 76 73 73 70 64 61 60 56 55 57 56 53 53 53 55 57 58 58 59 59 61 62 59 53 49 47 47 48 47 47 47 48 48 48 47 47 46 45 43 41 36 31 28 25 23 23 23 23 24 23 23 24 24 23 23 24 25 27 29 30 30 31
42 45 52 60 68 73 70 66 62 57 56 56 54 49 46 46 46 48 52 59 67 70 71 72 72 72 69 64 61 60 58 57 58 57 55 55 55 55 57 60 61 61 62 65 66 64 62 59 55 53 53 54 54 54 53 52 51 50 49 49 48 49 49 47 41 34 28 25 24 23 23 23 23 23 24 24 23 23 24 25 26 28 30 31 32
37 38 42 49 61 72 76 74 69 63 60 58 55 52 50 48 46 47 48 51 58 66 69 69 71 73 72 69 66 64 61 59 58 57 56 57 58 58 60 63 63 63 64 65 64 62 63 63 61 59 59 58 57 56 55 54 53 52 50 48 48 48 50 51 50 44 35 29 27 25 24 24 24 24 24 24 23 23 24 25 27 28 30 32 33
33 33 38 42 49 62 74 79 76 70 67 65 58 53 53 51 48 48 50 49 53 60 65 67 67 69 73 73 70 67 63 59 57 58 58 59 62 64 65 66 65 64 63 63 62 61 63 63 62 62 61 60 58 57 56 55 54 54 53 51 51 50 49 49 50 47 42 37 33 29 26 26 26 26 25 25 25 25 25 25 27 29 31 33 35
31 31 35 39 41 50 62 74 78 75 73 72 65 58 58 56 50 49 51 52 53 56 58 60 61 62 67 69 67 65 64 60 57 58 62 65 68 70 70 68 65 63 62 61 61 61 63 64 64 62 61 60 60 59 58 57 57 56 55 55 56 55 52 50 48 47 45 42 37 33 31 29 28 28 27 26 26 26 25 26 28 30 33 37 39
31 30 32 34 36 41 51 64 73 74 72 73 69 63 62 60 54 50 51 53 55 57 59 59 58 57 61 65 66 63 62 60 59 60 64 67 69 71 71 67 65 64 64 63 62 63 63 63 63 62 60 60 60 59 60 60 60 58 57 57 59 59 57 54 52 51 48 44 39 36 34 32 30 29 28 28 27 26 27 29 31 34 36 40 44
31 29 29 30 31 35 41 53 65 70 70 70 67 65 66 67 60 55 54 54 56 59 61 62 60 56 54 59 64 65 64 63 62 62 64 66 68 69 69 67 66 67 67 66 65 63 62 61 61 61 60 60 59 59 60 60 59 58 57 57 58 59 60 59 58 56 52 46 41 38 36 34 32 31 29 28 28 28 30 31 33 36 39 44 50
30 27 26 27 27 29 34 43 55 62 66 68 66 63 66 70 67 61 57 55 55 58 60 61 62 59 55 55 59 63 67 68 69 67 65 66 67 68 68 69 69 68 67 66 65 63 61 59 58 58 59 59 59 59 60 61 60 58 58 58 58 59 61 61 62 61 57 52 46 42 39 37 35 32 31 29 29 29 31 33 35 37 42 47 54
30 27 25 25 26 27 30 36 46 54 60 65 65 61 62 67 68 66 63 58 56 59 62 61 60 60 58 58 59 60 62 65 68 70 69 68 68 68 68 68 68 67 65 63 62 62 60 59 58 57 58 58 58 58 60 61 61 59 59 58 58 59 62 62 61 60 60 57 54 49 45 41 38 35 32 30 29 30 32 34 37 39 42 48 56
32 29 26 25 25 26 28 32 40 47 53 59 61 60 60 63 65 68 68 61 55 56 61 62 61 61 61 62 62 61 60 60 63 66 68 68 67 66 66 65 65 65 64 64 63 62 61 60 59 58 58 57 57 58 58 59 60 62 63 62 61 61 62 61 60 60 60 59 58 56 51 45 43 40 36 31 30 31 33 35 38 39 41 46 55
33 30 28 27 26 26 28 31 36 41 47 54 58 57 57 59 62 67 68 58 49 51 58 60 61 62 63 64 64 64 63 62 61 61 62 63 62 62 61 62 63 63 64 64 63 61 60 59 58 57 57 57 56 55 55 55 57 60 64 67 67 67 66 64 62 63 65 64 62 60 57 51 46 45 42 37 33 33 35 38 41 43 46 51 56
34 31 30 29 28 28 29 33 37 38 41 48 53 55 55 55 57 64 67 59 48 47 54 58 59 62 63 63 63 64 64 64 64 63 62 60 59 58 57 58 60 60 60 61 59 57 55 55 55 56 58 59 57 55 53 53 54 58 66 72 72 70 70 70 68 68 69 69 66 64 62 58 51 47 45 43 39 37 40 44 48 52 56 58 59
35 33 32 31 31 31 33 34 36 38 39 42 46 50 53 52 51 57 64 62 51 47 51 56 59 62 64 64 63 62 62 62 63 64 63 62 60 59 57 57 58 59 59 59 57 55 53 54 56 58 60 61 61 59 56 54 55 60 67 71 69 66 67 69 70 71 72 71 68 66 65 63 57 51 49 49 48 48 50 53 57 60 62 61 62
35 34 32 30 30 33 35 35 36 37 38 40 42 45 49 51 50 53 61 64 59 53 52 56 59 63 66 66 65 63 61 60 60 61 62 62 60 58 57 57 57 58 58 58 56 54 54 55 57 58 58 59 61 62 61 61 60 60 62 64 64 62 60 61 63 67 69 70 69 67 66 65 63 60 59 59 61 61 60 60 61 64 66 66 66
35 33 31 31 32 35 36 36 37 37 38 39 41 42 45 48 49 51 58 66 66 59 52 52 56 60 64 66 66 64 62 60 59 58 58 59 58 55 54 54 53 54 55 56 55 54 54 55 56 56 55 55 57 60 61 62 62 63 64 65 63 62 63 64 66 69 71 71 70 68 68 68 68 68 68 69 70 70 68 66 66 68 69 69 70
37 36 35 34 34 35 36 37 37 38 38 39 40 41 42 45 46 48 53 64 69 64 54 49 50 52 56 60 62 60 58 58 58 58 56 55 52 50 48 49 50 50 51 52 52 51 51 51 52 53 54 56 57 58 58 58 60 62 66 68 67 66 67 69 71 72 74 74 72 71 71 71 71 71 72 73 72 72 72 72 71 70 70 72 77
43 44 43 39 37 35 36 37 38 38 40 41 41 41 41 42 43 44 48 56 63 63 58 53 50 49 50 54 56 56 55 56 57 58 58 55 50 46 44 44 46 48 50 50 49 48 46 44 45 49 53 56 56 54 53 54 55 58 63 68 71 70 69 71 74 77 79 79 77 74 73 71 71 72 73 73 72 73 73 73 73 72 73 77 81
52 53 52 48 44 40 39 39 38 39 42 44 45 45 45 45 45 44 45 48 52 55 56 55 51 48 48 49 50 52 55 56 56 57 58 56 51 46 43 42 42 45 47 47 45 42 40 38 38 42 47 51 52 51 51 52 55 58 61 64 66 67 68 69 72 76 78 77 76 74 71 70 71 73 74 73 73 73 72 72 75 76 77 77 79
60 59 57 55 52 48 46 45 44 43 45 49 51 50 49 48 48 47 46 46 46 47 49 50 49 47 47 47 47 48 51 54 55 55 55 54 51 47 43 40 39 41 43 44 42 39 37 36 37 39 43 47 50 51 53 55 58 60 60 60 63 68 71 70 70 72 74 74 73 73 72 72 72 74 75 74 74 74 73 74 77 78 77 76 77
64 62 61 59 57 55 53 53 51 49 48 51 52 50 48 46 45 46 47 48 47 46 45 45 45 45 46 47 47 47 47 49 52 54 53 51 50 46 42 39 39 40 42 43 43 41 41 40 39 40 43 46 49 52 54 57 59 59 57 58 63 70 75 76 76 77 78 78 77 78 78 78 78 79 79 77 75 75 75 76 77 78 78 77 79
67 67 65 63 62 61 60 60 58 54 50 49 49 48 47 46 45 44 45 48 49 50 49 47 46 46 46 46 47 48 47 46 49 52 52 51 49 45 41 40 41 43 44 43 43 44 45 45 44 43 45 47 49 50 52 54 55 55 55 58 63 69 74 78 80 80 81 82 82 81 81 82 83 85 84 81 77 75 75 77 78 78 77 78 81